Year,Month,Day,Hour,Minute,Value (Times are PST for temperature in C)
2014,11,16,07,47,-0.90
2014,11,16,07,48,-0.90
2014,11,16,07,49,-0.90
2014,11,16,07,50,-0.90
2014,11,16,07,51,-0.90
2014,11,16,07,52,-0.90
2014,11,16,07,53,-0.90
2014,11,16,07,54,-0.90
2014,11,16,07,55,-0.90
2014,11,16,07,56,-0.90
2014,11,16,07,57,-0.90
2014,11,16,07,58,-0.90
2014,11,16,07,59,-0.90
2014,11,16,09,06,0.90
2014,11,16,09,07,0.90
2014,11,16,09,08,1.00
2014,11,16,09,09,1.00
2014,11,16,09,10,1.10
2014,11,16,09,11,1.10
2014,11,16,09,12,1.20
2014,11,16,09,13,1.30
2014,11,16,09,14,1.30
2014,11,16,09,15,1.30
2014,11,16,09,16,1.40
2014,11,16,09,17,1.40
2014,11,16,09,18,1.50
2014,11,16,09,19,1.50
2014,11,16,09,20,1.60
2014,11,16,09,21,1.60
2014,11,16,09,22,1.70
2014,11,16,09,23,1.70
2014,11,16,09,24,1.80
2014,11,16,09,25,1.80
2014,11,16,09,26,1.90
2014,11,16,09,27,1.90
2014,11,16,09,28,2.00
2014,11,16,09,29,2.00
2014,11,16,09,30,2.10
2014,11,16,09,31,2.20
2014,11,16,09,32,2.20
2014,11,16,09,33,2.30
2014,11,16,09,34,2.30
2014,11,16,09,35,2.40
2014,11,16,09,36,2.50
2014,11,16,09,37,2.50
2014,11,16,09,38,2.60
2014,11,16,09,39,2.70
2014,11,16,09,40,2.70
2014,11,16,09,41,2.80
2014,11,16,09,42,2.90
2014,11,16,09,43,2.90
2014,11,16,09,44,3.10
2014,11,16,09,45,3.10
2014,11,16,09,46,3.30
2014,11,16,09,47,3.30
2014,11,16,09,48,3.40
2014,11,16,09,49,3.40
2014,11,16,09,50,3.50
2014,11,16,09,51,3.60
2014,11,16,09,52,3.60
2014,11,16,09,53,3.70
2014,11,16,09,54,3.80
2014,11,16,09,55,3.80
2014,11,16,09,56,3.90
2014,11,16,09,57,3.90
2014,11,16,09,58,4.00
2014,11,16,09,59,4.10
2014,11,16,10,00,4.20
2014,11,16,10,01,4.20
2014,11,16,10,02,4.20
2014,11,16,10,03,4.30
2014,11,16,10,04,4.40
2014,11,16,10,05,4.50
2014,11,16,10,06,4.50
2014,11,16,10,07,4.60
2014,11,16,10,08,4.60
2014,11,16,10,09,4.60
2014,11,16,10,10,4.60
2014,11,16,10,11,4.60
2014,11,16,10,12,4.60
2014,11,16,10,13,4.70
2014,11,16,10,14,4.70
2014,11,16,10,15,4.80
2014,11,16,10,16,4.80
2014,11,16,10,17,4.90
2014,11,16,10,18,4.90
2014,11,16,10,19,4.90
2014,11,16,10,20,4.90
2014,11,16,10,21,4.90
2014,11,16,10,22,4.90
2014,11,16,10,23,5.00
2014,11,16,10,24,5.10
2014,11,16,10,25,5.10
2014,11,16,10,26,5.10
2014,11,16,10,27,5.10
2014,11,16,10,28,5.10
2014,11,16,10,29,5.10
2014,11,16,10,30,5.10
2014,11,16,10,31,5.10
2014,11,16,10,32,5.10
2014,11,16,10,33,5.10
2014,11,16,10,34,5.10
2014,11,16,10,35,5.10
2014,11,16,10,36,5.20
2014,11,16,10,37,5.20
2014,11,16,10,38,5.20
2014,11,16,10,39,5.30
2014,11,16,10,40,5.30
2014,11,16,10,41,5.30
2014,11,16,10,42,5.30
2014,11,16,10,43,5.30
2014,11,16,10,44,5.30
2014,11,16,10,45,5.40
2014,11,16,10,46,5.40
2014,11,16,10,47,5.40
2014,11,16,10,48,5.50
2014,11,16,10,49,5.50
2014,11,16,10,50,5.50
2014,11,16,10,51,5.50
2014,11,16,10,52,5.60
2014,11,16,10,53,5.60
2014,11,16,10,54,5.60
2014,11,16,10,55,5.60
2014,11,16,10,56,5.60
2014,11,16,10,57,5.70
2014,11,16,10,58,5.70
2014,11,16,10,59,5.70
2014,11,16,11,00,5.70
2014,11,16,11,01,5.70
2014,11,16,11,02,5.70
2014,11,16,11,03,5.70
2014,11,16,11,04,5.70
2014,11,16,11,05,5.70
2014,11,16,11,06,5.70
2014,11,16,11,07,5.70
2014,11,16,11,08,5.70
2014,11,16,11,09,5.80
2014,11,16,11,10,5.80
2014,11,16,11,11,5.80
2014,11,16,11,12,5.80
2014,11,16,11,13,5.90
2014,11,16,11,14,5.90
2014,11,16,11,15,5.90
2014,11,16,11,16,5.90
2014,11,16,11,17,6.00
2014,11,16,11,18,5.90
2014,11,16,11,19,5.90
2014,11,16,11,20,6.00
2014,11,16,11,21,6.00
2014,11,16,11,22,6.10
2014,11,16,11,23,6.20
2014,11,16,11,24,6.20
2014,11,16,11,25,6.20
2014,11,16,11,26,6.20
2014,11,16,11,27,6.20
2014,11,16,11,28,6.30
2014,11,16,11,29,6.30
2014,11,16,11,30,6.30
2014,11,16,11,31,6.40
2014,11,16,11,32,6.40
2014,11,16,11,33,6.40
2014,11,16,11,34,6.40
2014,11,16,11,35,6.40
2014,11,16,11,36,6.40
2014,11,16,11,37,6.40
2014,11,16,11,38,6.40
2014,11,16,11,39,6.40
2014,11,16,11,40,6.40
2014,11,16,11,41,6.40
2014,11,16,11,42,6.40
2014,11,16,11,43,6.60
2014,11,16,11,44,6.60
2014,11,16,11,45,6.60
2014,11,16,11,46,6.60
2014,11,16,11,47,6.70
2014,11,16,11,48,6.70
2014,11,16,11,49,6.70
2014,11,16,11,50,6.70
2014,11,16,11,51,6.70
2014,11,16,11,52,6.80
2014,11,16,11,53,6.80
2014,11,16,11,54,6.80
2014,11,16,11,55,6.80
2014,11,16,11,56,6.80
2014,11,16,11,57,6.80
2014,11,16,11,58,6.80
2014,11,16,11,59,6.90
2014,11,16,12,00,6.90
2014,11,16,12,01,6.90
2014,11,16,12,02,7.00
2014,11,16,12,03,7.00
2014,11,16,12,04,7.00
2014,11,16,12,05,7.10
2014,11,16,12,06,7.00
2014,11,16,12,07,7.00
2014,11,16,12,08,6.90
2014,11,16,12,09,6.90
2014,11,16,12,10,6.90
2014,11,16,12,11,6.80
2014,11,16,12,12,6.80
2014,11,16,12,13,6.80
2014,11,16,12,14,6.80
2014,11,16,12,15,6.80
2014,11,16,12,16,6.80
2014,11,16,12,17,6.80
2014,11,16,12,18,6.90
2014,11,16,12,19,6.90
2014,11,16,12,20,7.00
2014,11,16,12,21,7.00
2014,11,16,12,22,7.00
2014,11,16,12,23,7.00
2014,11,16,12,24,7.00
2014,11,16,12,25,7.00
2014,11,16,12,26,7.00
2014,11,16,12,27,7.00
2014,11,16,12,28,7.10
2014,11,16,12,29,7.10
2014,11,16,12,30,7.10
2014,11,16,12,31,7.20
2014,11,16,12,32,7.20
2014,11,16,12,33,7.20
2014,11,16,12,34,7.20
2014,11,16,12,35,7.20
2014,11,16,12,36,7.20
2014,11,16,12,37,7.20
2014,11,16,12,38,7.20
2014,11,16,12,39,7.30
2014,11,16,12,40,7.30
2014,11,16,12,41,7.30
2014,11,16,12,42,7.30
2014,11,16,12,43,7.30
2014,11,16,12,44,7.30
2014,11,16,12,45,7.30
2014,11,16,12,46,7.30
2014,11,16,12,47,7.30
2014,11,16,12,48,7.30
2014,11,16,12,49,7.30
2014,11,16,12,50,7.30
2014,11,16,12,51,7.30
2014,11,16,12,52,7.20
2014,11,16,12,53,7.20
2014,11,16,12,54,7.20
2014,11,16,12,55,7.10
2014,11,16,12,56,7.10
2014,11,16,12,57,7.00
2014,11,16,12,58,7.10
2014,11,16,12,59,7.10
2014,11,16,13,00,7.10
2014,11,16,13,01,7.10
2014,11,16,13,02,7.10
2014,11,16,13,03,7.10
2014,11,16,13,04,7.20
2014,11,16,13,05,7.20
2014,11,16,13,06,7.20
2014,11,16,13,07,7.20
2014,11,16,13,08,7.20
2014,11,16,13,09,7.20
2014,11,16,13,10,7.20
2014,11,16,13,11,7.20
2014,11,16,13,12,7.30
2014,11,16,13,13,7.30
2014,11,16,13,14,7.30
2014,11,16,13,15,7.30
2014,11,16,13,16,7.30
2014,11,16,13,17,7.30
2014,11,16,13,18,7.30
2014,11,16,13,19,7.30
2014,11,16,13,20,7.30
2014,11,16,13,21,7.30
2014,11,16,13,22,7.30
2014,11,16,13,23,7.30
2014,11,16,13,24,7.30
2014,11,16,13,25,7.30
2014,11,16,13,26,7.30
2014,11,16,13,27,7.30
2014,11,16,13,28,7.30
2014,11,16,13,29,7.30
2014,11,16,13,30,7.30
2014,11,16,13,31,7.30
2014,11,16,13,32,7.30
2014,11,16,13,33,7.30
2014,11,16,13,34,7.20
2014,11,16,13,35,7.20
2014,11,16,13,36,7.20
2014,11,16,13,37,7.30
2014,11,16,13,38,7.30
2014,11,16,13,39,7.30
2014,11,16,13,40,7.30
2014,11,16,13,41,7.30
2014,11,16,13,42,7.20
2014,11,16,13,43,7.10
2014,11,16,13,44,7.10
2014,11,16,13,45,7.10
2014,11,16,13,46,7.10
2014,11,16,13,47,7.10
2014,11,16,13,48,7.10
2014,11,16,13,49,7.10
2014,11,16,13,50,7.20
2014,11,16,13,51,7.20
2014,11,16,13,52,7.20
2014,11,16,13,53,7.20
2014,11,16,13,54,7.30
2014,11,16,13,55,7.30
2014,11,16,13,56,7.40
2014,11,16,13,57,7.40
2014,11,16,13,58,7.50
2014,11,16,13,59,7.50
2014,11,16,14,00,7.50
2014,11,16,14,01,7.50
2014,11,16,14,02,7.40
2014,11,16,14,03,7.40
2014,11,16,14,04,7.40
2014,11,16,14,05,7.30
2014,11,16,14,06,7.30
2014,11,16,14,07,7.30
2014,11,16,14,08,7.30
2014,11,16,14,09,7.30
2014,11,16,14,10,7.30
2014,11,16,14,11,7.30
2014,11,16,14,12,7.30
2014,11,16,14,13,7.40
2014,11,16,14,14,7.40
2014,11,16,14,15,7.40
2014,11,16,14,16,7.40
2014,11,16,14,17,7.50
2014,11,16,14,18,7.50
2014,11,16,14,19,7.60
2014,11,16,14,20,7.50
2014,11,16,14,21,7.50
2014,11,16,14,22,7.50
2014,11,16,14,23,7.50
2014,11,16,14,24,7.50
2014,11,16,14,25,7.50
2014,11,16,14,26,7.40
2014,11,16,14,27,7.30
2014,11,16,14,28,7.30
2014,11,16,14,29,7.30
2014,11,16,14,30,7.30
2014,11,16,14,31,7.30
2014,11,16,14,32,7.20
2014,11,16,14,33,7.20
2014,11,16,14,34,7.20
2014,11,16,14,35,7.20
2014,11,16,14,36,7.30
2014,11,16,14,37,7.30
2014,11,16,14,38,7.30
2014,11,16,14,39,7.30
2014,11,16,14,40,7.30
2014,11,16,14,41,7.40
2014,11,16,14,42,7.50
2014,11,16,14,43,7.50
2014,11,16,14,44,7.50
2014,11,16,14,45,7.60
2014,11,16,14,46,7.60
2014,11,16,14,47,7.50
2014,11,16,14,48,7.40
2014,11,16,14,49,7.30
2014,11,16,14,50,7.30
2014,11,16,14,51,7.20
2014,11,16,14,52,7.10
2014,11,16,14,53,6.90
2014,11,16,14,54,6.80
2014,11,16,14,55,6.70
2014,11,16,14,56,6.70
2014,11,16,14,57,6.70
2014,11,16,14,58,6.60
2014,11,16,14,59,6.50
2014,11,16,15,00,6.40
2014,11,16,15,01,6.40
2014,11,16,15,02,6.30
2014,11,16,15,03,6.30
2014,11,16,15,04,6.30
2014,11,16,15,05,6.30
2014,11,16,15,06,6.40
2014,11,16,15,07,6.40
2014,11,16,15,08,6.30
2014,11,16,15,09,6.30
2014,11,16,15,10,6.30
2014,11,16,15,11,6.20
2014,11,16,15,12,6.20
2014,11,16,15,13,6.20
2014,11,16,15,14,6.10
2014,11,16,15,15,6.00
2014,11,16,15,16,6.00
2014,11,16,15,17,5.90
2014,11,16,15,18,5.90
2014,11,16,15,19,5.80
2014,11,16,15,20,5.70
2014,11,16,15,21,5.70
2014,11,16,15,22,5.60
2014,11,16,15,23,5.60
2014,11,16,15,24,5.60
2014,11,16,15,25,5.50
2014,11,16,15,26,5.50
2014,11,16,15,27,5.40
2014,11,16,15,28,5.40
2014,11,16,15,29,5.40
2014,11,16,15,30,5.30
2014,11,16,15,31,5.30
2014,11,16,15,32,5.30
2014,11,16,15,33,5.20
2014,11,16,15,34,5.20
2014,11,16,15,35,5.20
2014,11,16,15,36,5.10
2014,11,16,15,37,5.10
2014,11,16,15,38,5.10
2014,11,16,15,39,5.00
2014,11,16,15,40,4.90
2014,11,16,15,41,4.90
2014,11,16,15,42,4.90
2014,11,16,15,43,4.80
2014,11,16,15,44,4.80
2014,11,16,15,45,4.80
2014,11,16,15,46,4.70
2014,11,16,15,47,4.70
2014,11,16,15,48,4.60
2014,11,16,15,49,4.60
2014,11,16,15,50,4.60
2014,11,16,15,51,4.60
2014,11,16,15,52,4.60
2014,11,16,15,53,4.60
2014,11,16,15,54,4.60
2014,11,16,15,55,4.50
2014,11,16,15,56,4.50
2014,11,16,15,57,4.50
2014,11,16,15,58,4.40
2014,11,16,15,59,4.40
2014,11,16,16,00,4.40
2014,11,16,16,01,4.40
2014,11,16,16,02,4.30
2014,11,16,16,03,4.30
2014,11,16,16,04,4.30
2014,11,16,16,05,4.30
2014,11,16,16,06,4.30
2014,11,16,16,07,4.30
2014,11,16,16,08,4.20
2014,11,16,16,09,4.20
2014,11,16,16,10,4.20
2014,11,16,16,11,4.20
2014,11,16,16,12,4.20
2014,11,16,16,13,4.20
2014,11,16,16,14,4.20
2014,11,16,16,15,4.20
2014,11,16,16,16,4.20
2014,11,16,16,17,4.10
2014,11,16,16,18,4.10
2014,11,16,16,19,4.10
2014,11,16,16,20,4.00
2014,11,16,16,21,4.00
2014,11,16,16,22,4.00
2014,11,16,16,23,3.90
2014,11,16,16,24,3.90
2014,11,16,16,25,3.80
2014,11,16,16,26,3.80
2014,11,16,16,27,3.80
2014,11,16,16,28,3.70
2014,11,16,16,29,3.70
2014,11,16,16,30,3.70
2014,11,16,16,31,3.60
2014,11,16,16,32,3.60
2014,11,16,16,33,3.60
2014,11,16,16,34,3.60
2014,11,16,16,35,3.60
2014,11,16,16,36,3.50
2014,11,16,16,37,3.50
2014,11,16,16,38,3.50
2014,11,16,16,39,3.40
2014,11,16,16,40,3.40
2014,11,16,16,41,3.40
2014,11,16,16,42,3.30
2014,11,16,16,43,3.30
2014,11,16,16,44,3.30
2014,11,16,16,45,3.30
2014,11,16,16,46,3.30
2014,11,16,16,47,3.20
2014,11,16,16,48,3.20
2014,11,16,16,49,3.20
2014,11,16,16,50,3.20
2014,11,16,16,51,3.10
2014,11,16,16,52,3.10
2014,11,16,16,53,3.10
2014,11,16,16,54,3.10
2014,11,16,16,55,3.00
2014,11,16,16,56,2.90
2014,11,16,16,57,2.90
2014,11,16,16,58,2.90
2014,11,16,16,59,2.90
2014,11,16,17,00,2.90
2014,11,16,17,01,2.90
2014,11,16,17,02,2.80
2014,11,16,17,03,2.80
2014,11,16,17,04,2.80
2014,11,16,17,05,2.80
2014,11,16,17,06,2.70
2014,11,16,17,07,2.70
2014,11,16,17,08,2.70
2014,11,16,17,09,2.70
2014,11,16,17,10,2.70
2014,11,16,17,11,2.60
2014,11,16,17,12,2.60
2014,11,16,17,13,2.60
2014,11,16,17,14,2.60
2014,11,16,17,15,2.50
2014,11,16,17,16,2.50
2014,11,16,17,17,2.50
2014,11,16,17,18,2.50
2014,11,16,17,19,2.40
2014,11,16,17,20,2.40
2014,11,16,17,21,2.40
2014,11,16,17,22,2.30
2014,11,16,17,23,2.30
2014,11,16,17,24,2.30
2014,11,16,17,25,2.20
2014,11,16,17,26,2.20
2014,11,16,17,27,2.20
2014,11,16,17,28,2.20
2014,11,16,17,29,2.20
2014,11,16,17,30,2.10
2014,11,16,17,31,2.10
2014,11,16,17,32,2.10
2014,11,16,17,33,2.00
2014,11,16,17,34,2.00
2014,11,16,17,35,2.00
2014,11,16,17,36,1.90
2014,11,16,17,37,1.90
2014,11,16,17,38,1.90
2014,11,16,17,39,1.80
2014,11,16,17,40,1.80
2014,11,16,17,41,1.80
2014,11,16,17,42,1.80
2014,11,16,17,43,1.80
2014,11,16,17,44,1.80
2014,11,16,17,45,1.80
2014,11,16,17,46,1.80
2014,11,16,17,47,1.80
2014,11,16,17,48,1.80
2014,11,16,17,49,1.80
2014,11,16,17,50,1.80
2014,11,16,17,51,1.80
2014,11,16,17,52,1.80
2014,11,16,17,53,1.80
2014,11,16,17,54,1.80
